Retour au catalogue

CZ-3B DEB

LostGTO
NORAD 41120·DEBRIS·🇨🇳 China

Lancé Dec 19, 2011 depuis Xichang Satellite Launch Center

Loading…

TLE

PériméSource: Space-Track

Époque: Jul 29, 2019, 18:23 UTC

1 41120U 11077AK  19210.76630294 -.00000492  00000-0 -56385-1 0  9999
2 41120  26.8759 353.7873 7318689 272.0230  13.9514  1.88905713 29748

Suivez CZ-3B DEB en temps réel avec AllMySat

Download on the App Store